Skip Page Navigation
NASA JPL Caltech
NASA Logo - Jet Propulsion Laboratory + View the NASA Portal
+ Near-Earth Object (NEO) Program
Search JPL
JPL Home Earth Solar System Stars & Galaxies Technology
JPL Solar System Dynamics
BODIES ORBITS EPHEMERIDES TOOLS PHYSICAL DATA DISCOVERY FAQ SITE MAP
JPL Small-Body Database Browser
Search: [ help ]  
145475 Rehoboth (2005 TP52)
Classification: Main-belt Asteroid          SPK-ID: 2145475
Ephemeris | Orbit Diagram | Orbital Elements | Physical Parameters | Discovery Circumstances ]

[ hide orbit diagram ]
Orbit Diagram
Note: Make sure you have Java enabled on your browser to see the applet. This applet is provided as a 3D orbit visualization tool. The applet was implemented using 2-body methods, and hence should not be used for determining accurate long-term trajectories (over several years or decades) or planetary encounter circumstances. For accurate long-term ephemerides, please instead use our Horizons system.
Orbit Viewer

Additional Notes: the orbits shown in the applet are color coded. The planets are white lines, and the asteroid/comet is a blue line. The bright white line indicates the portion of the orbit that is above the ecliptic plane, and the darker portion is below the ecliptic plane. Likewise for the asteroid/comet orbit, the light blue indicates the portion above the ecliptic plane, and the dark blue the portion below the ecliptic plane.

Orbit Viewer applet originally written and kindly provided by Osamu Ajiki (AstroArts), and further modified by Ron Baalke (JPL).


Orbital Elements at Epoch 2456400.5 (2013-Apr-18.0) TDB
Reference: MPO229718 (heliocentric ecliptic J2000)
 Element Value Uncertainty (1-sigma)   Units 
e 0.0238598 n/a  
a 2.7724777 n/a AU
q 2.7063269 n/a AU
i 2.99178 n/a deg
node 29.64661 n/a deg
peri 177.12511 n/a deg
M 48.33372 n/a deg
tp 2456174.1146946
(2012-Sep-03.61469460)
n/a JED
period 1686.1667164
4.62
n/a
n/a
d
yr
n 0.21350202 n/a deg/d
Q 2.8386285 n/a AU
  Orbit Determination Parameters
   # obs. used (total)      165  
   first obs. used      1998-??-??  
   last obs. used      2012-04-15  
   # oppositions      8  
   planetary ephem.      DE403  
   condition code      0  
   fit RMS      0.42  
   data source      MPC:mpu  
   producer      MPCLINUX  

Additional Information
 T_jup = 3.334 

Ephemeris | Orbit Diagram | Orbital Elements | Physical Parameters | Discovery Circumstances ]

Physical Parameter Table
Parameter Symbol Value Units Sigma Reference Notes
absolute magnitude H 16.3 mag n/a MPO229718  

145475 Rehoboth           Discovered 2005 Oct. 12 by L. A. Molnar at the Calvin-Rehoboth Observatory.
Rehoboth Christian School (founded 1903) in northwest New Mexico primarily serves Native American families. The school is widely known for its high academic standards and Christian values as well as alumni leadership and achievement. The Rehoboth campus is the site of the Calvin-Rehoboth Robotic Observatory.
NOTE: some special characters may not display properly (any characters within {} are an attempt to place the proper accent above a character)
Reference: 20070402/MPCPages.arcLast Updated: 2007-07-05

Alternate Designations
 2005 TP52 = 2000 TZ30 = 2003 JG18 
Ephemeris | Orbit Diagram | Orbital Elements | Physical Parameters | Discovery Circumstances ]
ABOUT SSD CREDITS/AWARDS PRIVACY/COPYRIGHT GLOSSARY LINKS
FirstGov 2013-May-19 06:05 UT
(server date/time)  
NASA Home Page
Site Manager:   Donald K. Yeomans
Webmaster  Alan B. Chamberlin